EW5121 Weather Reports


Display with metric or nautical units.
time (UTC)temp
F
wind
direction
speed
MPH
gust
MPH
rain 1hr
in
rain 24hr
in
rain mn
in
humidity
%
barometer
mb
20190219044747 74 248 0.0 0.0 0.00 0.00 0.00 1012.2
20190219043746 74 248 0.0 0.0 0.00 0.00 0.00 1012.2
20190219042744 75 23 0.0 0.0 0.00 0.00 0.00 1012.2
20190219041742 75 68 0.0 0.0 0.00 0.00 0.00 1012.2
20190219040741 75 68 0.0 0.0 0.00 0.00 0.00 1012.2
20190219035739 75 68 0.0 0.0 0.00 0.00 0.00 1011.9
20190219034737 75 68 0.0 0.0 0.00 0.00 0.00 1011.9
20190219033736 75 68 0.0 0.0 0.00 0.00 0.00 1012.2
20190219032734 75 68 0.0 0.0 0.00 0.00 0.00 1012.2
20190219031732 75 68 0.0 0.0 0.00 0.00 0.00 1012.5
20190219030730 75 68 0.0 0.0 0.00 0.00 0.00 1012.9
20190219025738 75 68 0.0 0.0 0.00 0.00 0.00 1012.9
20190219024728 76 68 0.0 0.0 0.00 0.00 0.00 1012.9
20190219023726 76 68 0.0 0.0 0.00 0.00 0.00 1012.9
20190219022724 76 45 0.0 0.0 0.00 0.00 0.00 1012.9
20190219021722 76 45 0.0 0.0 0.00 0.00 0.00 1013.2
20190219020721 76 23 0.0 0.0 0.00 0.00 0.00 1013.2
20190219015719 76 23 0.0 0.0 0.00 0.00 0.00 1013.5
20190219014717 76 23 0.0 0.0 0.00 0.00 0.00 1013.2
20190219013714 76 23 0.0 0.0 0.00 0.00 0.00 1013.5
20190219012712 76 23 0.0 0.0 0.00 0.00 0.00 1013.2
20190219011710 76 23 0.0 0.0 0.00 0.00 0.00 1013.2
20190219010709 76 23 0.0 0.0 0.00 0.00 0.00 1013.5
20190219005707 76 23 0.0 0.0 0.00 0.00 0.00 1013.2
20190219004706 76 23 0.0 0.0 0.00 0.00 0.00 1012.9
20190219003704 76 0 0.0 0.0 0.00 0.00 0.00 1012.9
20190219002703 76 0 0.0 0.0 0.00 0.00 0.00 1012.9
20190219001700 76 0 0.0 0.0 0.00 0.00 0.00 1013.2
20190219000658 76 0 0.0 0.0 0.00 0.00 0.00 1012.9
20190218235657 76 0 0.0 0.0 0.00 0.00 0.00 1012.9
20190218234655 77 23 0.0 0.0 0.00 0.00 0.00 1012.5
20190218233654 77 23 0.0 0.0 0.00 0.00 0.00 1012.5
20190218232652 77 23 0.0 0.0 0.00 0.00 0.00 1012.2
20190218231650 77 0 0.0 0.0 0.00 0.00 0.00 1012.2
20190218230648 77 0 0.0 0.0 0.00 0.00 0.00 1012.2
20190218225646 77 2 0.0 1.0 0.00 0.00 0.00 1011.9
20190218224645 78 270 0.0 0.0 0.00 0.00 0.00 1011.5
20190218223643 78 68 0.0 0.0 0.00 0.00 0.00 1011.5
20190218222642 78 34 0.0 0.0 0.00 0.00 0.00 1011.5
20190218221640 79 0 0.0 0.0 0.00 0.00 0.00 1011.2
20190218220638 79 0 0.0 1.0 0.00 0.00 0.00 1011.2
20190218215635 79 259 0.0 1.0 0.00 0.00 0.00 1011.2
20190218214633 80 0 0.0 0.0 0.00 0.00 0.00 1011.2
20190218213631 80 229 0.0 1.0 0.00 0.00 0.00 1010.8
20190218212630 80 200 1.0 2.0 0.00 0.00 0.00 1010.5
20190218211628 80 170 1.0 2.0 0.00 0.00 0.00 1010.5
20190218210626 80 238 0.0 5.0 0.00 0.00 0.00 1010.8
20190218205625 81 243 2.0 5.0 0.00 0.00 0.00 1010.8
20190218204624 81 243 1.0 4.0 0.00 0.00 0.00 1010.8
20190218203621 82 251 2.0 3.0 0.00 0.00 0.00 1010.5
20190218202618 82 23 0.0 0.0 0.00 0.00 0.00 1010.2
20190218201623 82 0 0.0 0.0 0.00 0.00 0.00 1009.8
20190218201056 82 0 0.0 0.0 0.00 0.00 0.00 1009.5
20190218200054 83 91 0.0 0.0 0.00 0.00 0.00 1009.5
20190218195051 83 0 0.0 0.0 0.00 0.00 0.00 1009.5
20190218194049 83 45 0.0 1.0 0.00 0.00 0.00 1009.5
20190218193043 83 36 0.0 0.0 0.00 0.00 0.00 1009.5
20190218192039 84 44 0.0 1.0 0.00 0.00 0.00 1009.8
20190218191034 83 23 0.0 2.0 0.00 0.00 0.00 1009.8
20190218190026 83 23 0.0 0.0 0.00 0.00 0.00 1009.8
20190218185024 84 158 0.0 1.0 0.00 0.00 0.00 1009.8
20190218184023 84 81 0.0 3.0 0.00 0.00 0.00 1009.8
20190218183021 84 67 1.0 2.0 0.00 0.00 0.00 1009.8
20190218182020 84 40 1.0 2.0 0.00 0.00 0.00 1009.8
20190218181018 84 338 2.0 2.0 0.00 0.00 0.00 1010.2
20190218180017 84 31 1.0 2.0 0.00 0.00 0.00 1010.5
20190218175017 84 15 0.0 1.0 0.00 0.00 0.00 1010.8
20190218174014 84 11 1.0 2.0 0.00 0.00 0.00 1010.8
20190218173012 84 0 1.0 2.0 0.00 0.00 0.00 1011.2
20190218172010 84 45 0.0 2.0 0.00 0.00 0.00 1011.2
20190218171008 84 333 1.0 2.0 0.00 0.00 0.00 1011.5
20190218170006 83 335 1.0 2.0 0.00 0.00 0.00 1011.9
20190218165003 83 14 1.0 1.0 0.00 0.00 0.00 1011.9
20190218164001 83 23 0.0 2.0 0.00 0.00 0.00 1012.2
20190218163000 84 334 1.0 2.0 0.00 0.00 0.00 1012.2
20190218161958 84 342 1.0 2.0 0.00 0.00 0.00 1012.2
20190218160957 83 342 1.0 2.0 0.00 0.00 0.00 1012.5
20190218155955 83 16 1.0 3.0 0.00 0.00 0.00 1012.9
20190218154953 83 30 0.0 2.0 0.00 0.00 0.00 1012.9
20190218153952 82 0 2.0 3.0 0.00 0.00 0.00 1013.2
20190218152951 82 337 0.0 1.0 0.00 0.00 0.00 1013.2
20190218151949 81 248 0.0 3.0 0.00 0.00 0.00 1013.5
20190218150948 81 17 2.0 3.0 0.00 0.00 0.00 1013.5
20190218145946 81 315 1.0 1.0 0.00 0.00 0.00 1013.9
20190218144945 81 270 1.0 1.0 0.00 0.00 0.00 1013.9
20190218143943 81 180 0.0 1.0 0.00 0.00 0.00 1013.9
20190218134953 80 356 1.0 3.0 0.00 0.00 0.00 1013.9
20190218133951 80 13 1.0 5.0 0.00 0.00 0.00 1013.9
20190218132950 80 351 1.0 5.0 0.00 0.00 0.00 1013.9
20190218131949 79 296 2.0 4.0 0.00 0.00 0.00 1013.9